^^
Datos históricos de la estación: Murcia-Puente Tocinos
Diario Informe para Marzo 25, 2019 Unidades:  Métrico    Inglés   Ambas
Diario Semanal Mensual Anual Configurable
  Máximo: Mínimo: Media:
Temperatura: 22.2 °C 9.4 °C 15.5 °C
Punto de rocio: 6.9 °C 0.7 °C 3.9 °C
Humedad: 66% 26% 48%
Velocidad viento: 17.2km/h 0.0km/h 7.8km/h
Racha viento: 27.8km/h - -
Viento- - SE
Presión: 1020.7 hPa 1014.9 hPa -
Precipitación: 0.0 mm    
Historical Graphs
 
 
Tabla de datos para Marzo 25, 2019
Hora Temperatura Punto de rocio Presión Viento Velocidad viento Racha viento Humedad Intensidad lluvia(por hora) Nubes
00:04 12.6 °C 5.5 °C 1020.7 hPa Calm     62% 0.0 mm CLR
00:10 12.6 °C 5.5 °C 1020.7 hPa Calm     62% 0.0 mm CLR
00:14 12.5 °C 5.7 °C 1020.7 hPa Calm     63% 0.0 mm CLR
00:20 12.4 °C 5.6 °C 1020.6 hPa Calm     63% 0.0 mm CLR
00:25 12.4 °C 5.3 °C 1020.6 hPa Calm     62% 0.0 mm CLR
00:29 12.3 °C 5.2 °C 1020.6 hPa Calm     62% 0.0 mm CLR
00:35 12.3 °C 5.2 °C 1020.4 hPa Calm     62% 0.0 mm CLR
00:39 12.2 °C 5.1 °C 1020.4 hPa Calm     62% 0.0 mm CLR
00:45 12.2 °C 4.9 °C 1020.4 hPa Calm   8.0 km/h 61% 0.0 mm CLR
00:49 12.1 °C 4.8 °C 1020.4 hPa ESE 3.9 km/h 7.4 km/h 61% 0.0 mm CLR
00:55 11.9 °C 4.6 °C 1020.4 hPa SE 3.2 km/h 8.0 km/h 61% 0.0 mm CLR
00:59 11.9 °C 4.6 °C 1020.4 hPa SSE 4.7 km/h 7.4 km/h 61% 0.0 mm CLR
01:05 11.9 °C 4.6 °C 1020.3 hPa SSE 4.7 km/h 11.1 km/h 61% 0.0 mm CLR
01:10 11.9 °C 4.6 °C 1020.3 hPa SSE 4.8 km/h 11.3 km/h 61% 0.0 mm CLR
01:15 11.8 °C 4.6 °C 1020.3 hPa SSE 4.8 km/h 9.7 km/h 61% 0.0 mm CLR
01:20 11.8 °C 4.5 °C 1020.2 hPa SSE 8.0 km/h 9.7 km/h 61% 0.0 mm CLR
01:25 11.9 °C 4.6 °C 1020.2 hPa South 6.4 km/h 7.6 km/h 61% 0.0 mm CLR
01:29 11.9 °C 4.6 °C 1020.2 hPa South 5.0 km/h 5.6 km/h 61% 0.0 mm CLR
01:35 11.9 °C 4.8 °C 1020.1 hPa SSW 4.8 km/h 8.0 km/h 62% 0.0 mm CLR
01:39 11.8 °C 4.7 °C 1020.1 hPa SW 4.7 km/h 5.6 km/h 62% 0.0 mm CLR
01:45 11.7 °C 4.9 °C 1020.1 hPa SW 3.2 km/h 4.8 km/h 63% 0.0 mm CLR
01:50 11.7 °C 4.9 °C 1020.2 hPa SW 3.2 km/h 4.8 km/h 63% 0.0 mm CLR
01:55 11.7 °C 4.9 °C 1020.2 hPa SW 2.9 km/h   63% 0.0 mm CLR
02:00 11.7 °C 4.9 °C 1020.2 hPa Calm   8.0 km/h 63% 0.0 mm CLR
02:05 11.6 °C 4.6 °C 1020.2 hPa Calm   5.6 km/h 62% 0.0 mm CLR
02:09 11.6 °C 4.6 °C 1020.2 hPa South 4.7 km/h 7.4 km/h 62% 0.0 mm CLR
02:15 11.4 °C 4.4 °C 1020.2 hPa South 3.2 km/h 9.7 km/h 62% 0.0 mm CLR
02:19 11.5 °C 4.4 °C 1020.1 hPa SSW 5.8 km/h 9.3 km/h 62% 0.0 mm CLR
02:25 11.5 °C 4.2 °C 1020.1 hPa SSW 4.8 km/h 9.7 km/h 61% 0.0 mm CLR
02:30 11.4 °C 4.2 °C 1020.1 hPa SSW 4.8 km/h 8.0 km/h 61% 0.0 mm CLR
02:35 11.4 °C 4.2 °C 1019.8 hPa SW 5.0 km/h 7.4 km/h 61% 0.0 mm CLR
02:40 11.4 °C 4.2 °C 1019.8 hPa SSW 3.2 km/h 9.3 km/h 61% 0.0 mm CLR
02:45 11.4 °C 4.2 °C 1019.8 hPa SSW 3.2 km/h 9.7 km/h 61% 0.0 mm CLR
02:49 11.2 °C 3.9 °C 1019.8 hPa South 6.4 km/h 11.1 km/h 61% 0.0 mm CLR
02:55 11.1 °C 3.8 °C 1019.8 hPa South 6.4 km/h 13.0 km/h 61% 0.0 mm CLR
03:00 11.2 °C 3.7 °C 1019.8 hPa SSW 8.0 km/h 12.9 km/h 60% 0.0 mm CLR
03:05 11.2 °C 3.7 °C 1019.7 hPa SSW 8.0 km/h 12.9 km/h 60% 0.0 mm CLR
03:10 11.2 °C 3.7 °C 1019.7 hPa SSW 8.0 km/h 12.9 km/h 60% 0.0 mm CLR
03:15 11.3 °C 3.8 °C 1019.7 hPa SSW 8.0 km/h 14.5 km/h 60% 0.0 mm CLR
03:20 11.3 °C 3.8 °C 1019.4 hPa SW 8.0 km/h 9.7 km/h 60% 0.0 mm CLR
03:25 11.4 °C 3.9 °C 1019.4 hPa SSE 6.4 km/h 9.3 km/h 60% 0.0 mm CLR
03:30 11.4 °C 3.9 °C 1019.4 hPa SSW 6.4 km/h 11.1 km/h 60% 0.0 mm CLR
03:35 11.3 °C 3.8 °C 1019.5 hPa South 8.0 km/h 12.9 km/h 60% 0.0 mm CLR
03:39 11.4 °C 3.9 °C 1019.5 hPa SW 7.6 km/h 11.1 km/h 60% 0.0 mm CLR
03:45 11.4 °C 3.9 °C 1019.5 hPa SSW 8.0 km/h 12.9 km/h 60% 0.0 mm CLR
03:49 11.4 °C 3.9 °C 1019.3 hPa SW 7.6 km/h 11.1 km/h 60% 0.0 mm CLR
03:55 11.4 °C 3.9 °C 1019.3 hPa SW 8.0 km/h 12.9 km/h 60% 0.0 mm CLR
04:00 11.4 °C 3.9 °C 1019.3 hPa SSW 8.0 km/h 14.5 km/h 60% 0.0 mm CLR
04:05 11.4 °C 3.9 °C 1019.2 hPa SSW 8.0 km/h 14.5 km/h 60% 0.0 mm CLR
04:10 11.4 °C 3.9 °C 1019.2 hPa SSW 9.7 km/h 12.9 km/h 60% 0.0 mm CLR
04:15 11.4 °C 3.9 °C 1019.2 hPa SSW 9.5 km/h 9.3 km/h 60% 0.0 mm CLR
04:20 11.4 °C 3.7 °C 1019.3 hPa SSW 8.0 km/h 11.3 km/h 59% 0.0 mm CLR
04:25 11.5 °C 3.8 °C 1019.3 hPa South 8.4 km/h 13.0 km/h 59% 0.0 mm CLR
04:30 11.7 °C 3.9 °C 1019.3 hPa SSW 8.0 km/h 14.5 km/h 59% 0.0 mm CLR
04:34 11.8 °C 3.8 °C 1019.2 hPa WSW 8.4 km/h 13.0 km/h 58% 0.0 mm CLR
04:40 11.9 °C 3.9 °C 1019.2 hPa SW 9.7 km/h 11.3 km/h 58% 0.0 mm CLR
04:45 11.9 °C 3.9 °C 1019.2 hPa SW 9.7 km/h 14.5 km/h 58% 0.0 mm CLR
04:50 11.7 °C 3.7 °C 1019.2 hPa SW 8.0 km/h 14.5 km/h 58% 0.0 mm CLR
04:55 11.6 °C 3.6 °C 1019.2 hPa WSW 8.4 km/h 11.1 km/h 58% 0.0 mm CLR
05:00 11.6 °C 3.6 °C 1019.2 hPa SW 9.7 km/h 12.9 km/h 58% 0.0 mm CLR
05:05 11.5 °C 3.5 °C 1019.2 hPa West 8.7 km/h 11.1 km/h 58% 0.0 mm CLR
05:10 11.4 °C 3.7 °C 1019.2 hPa WSW 8.0 km/h 12.9 km/h 59% 0.0 mm CLR
05:15 11.4 °C 3.7 °C 1019.2 hPa WSW 7.6 km/h 11.1 km/h 59% 0.0 mm CLR
05:20 11.3 °C 3.6 °C 1019.2 hPa WSW 8.0 km/h 11.3 km/h 59% 0.0 mm CLR
05:25 11.2 °C 3.5 °C 1019.2 hPa WSW 8.0 km/h 11.3 km/h 59% 0.0 mm CLR
05:30 11.1 °C 3.4 °C 1019.2 hPa WSW 8.0 km/h 9.7 km/h 59% 0.0 mm CLR
05:35 11.0 °C 3.5 °C 1019.3 hPa SSW 6.4 km/h 9.3 km/h 60% 0.0 mm CLR
05:40 10.8 °C 3.3 °C 1019.3 hPa WSW 3.9 km/h 9.3 km/h 60% 0.0 mm CLR
05:45 10.7 °C 3.2 °C 1019.3 hPa SW 3.2 km/h 9.7 km/h 60% 0.0 mm CLR
05:50 10.7 °C 3.2 °C 1019.2 hPa West 5.0 km/h 7.4 km/h 60% 0.0 mm CLR
05:55 10.6 °C 3.2 °C 1019.2 hPa WSW 4.8 km/h 8.0 km/h 60% 0.0 mm CLR
06:00 10.5 °C 3.3 °C 1019.2 hPa SW 4.8 km/h 8.0 km/h 61% 0.0 mm CLR
06:05 10.2 °C 3.4 °C 1019.1 hPa SSE 5.0 km/h 7.6 km/h 63% 0.0 mm CLR
06:10 9.9 °C 3.4 °C 1019.1 hPa SSE 4.8 km/h 9.7 km/h 64% 0.0 mm CLR
06:15 9.6 °C 3.3 °C 1019.1 hPa SSE 5.8 km/h 11.1 km/h 65% 0.0 mm CLR
06:19 9.4 °C 3.4 °C 1019.1 hPa SSW 8.4 km/h 11.9 km/h 66% 0.0 mm CLR
06:25 9.4 °C 3.4 °C 1019.1 hPa South 8.0 km/h 11.3 km/h 66% 0.0 mm CLR
06:30 9.5 °C 3.4 °C 1019.1 hPa SSW 8.4 km/h 11.1 km/h 66% 0.0 mm CLR
06:35 9.7 °C 3.4 °C 1019.2 hPa SW 8.4 km/h 11.1 km/h 65% 0.0 mm CLR
06:39 9.8 °C 3.5 °C 1019.2 hPa SW 7.6 km/h 13.0 km/h 65% 0.0 mm CLR
06:45 9.9 °C 3.4 °C 1019.2 hPa SW 8.0 km/h 14.5 km/h 64% 0.0 mm CLR
06:50 10.1 °C 3.4 °C 1019.1 hPa SW 8.0 km/h 14.5 km/h 63% 0.0 mm CLR
06:55 10.2 °C 3.2 °C 1019.1 hPa SW 8.0 km/h 14.5 km/h 62% 0.0 mm CLR
07:00 10.2 °C 3.2 °C 1019.1 hPa SW 9.7 km/h 11.3 km/h 62% 0.0 mm CLR
07:05 10.2 °C 3.2 °C 1019.4 hPa SW 8.7 km/h 9.3 km/h 62% 0.0 mm CLR
07:10 10.3 °C 3.3 °C 1019.4 hPa SSW 8.0 km/h 11.3 km/h 62% 0.0 mm CLR
07:15 10.1 °C 3.4 °C 1019.4 hPa SSW 8.0 km/h 14.5 km/h 63% 0.0 mm CLR
07:20 9.9 °C 3.2 °C 1019.4 hPa SSW 8.7 km/h 14.8 km/h 63% 0.0 mm CLR
07:25 9.9 °C 3.2 °C 1019.4 hPa South 8.7 km/h 11.1 km/h 63% 0.0 mm CLR
07:30 9.8 °C 3.1 °C 1019.4 hPa SSW 8.7 km/h 11.1 km/h 63% 0.0 mm CLR
07:34 9.9 °C 3.2 °C 1019.6 hPa SSW 8.7 km/h 11.1 km/h 63% 0.0 mm CLR
07:40 10.0 °C 3.3 °C 1019.6 hPa SSW 8.0 km/h 12.9 km/h 63% 0.0 mm CLR
07:45 10.1 °C 3.2 °C 1019.6 hPa SSW 8.4 km/h 11.1 km/h 62% 0.0 mm CLR
07:50 10.2 °C 3.2 °C 1019.7 hPa SSW 9.5 km/h 13.0 km/h 62% 0.0 mm CLR
07:55 10.2 °C 3.2 °C 1019.7 hPa SSW 9.7 km/h 14.5 km/h 62% 0.0 mm CLR
08:00 10.4 °C 2.9 °C 1019.7 hPa SSW 9.7 km/h 16.1 km/h 60% 0.0 mm CLR
08:05 10.6 °C 3.2 °C 1019.7 hPa SW 9.5 km/h 11.1 km/h 60% 0.0 mm CLR
08:10 10.7 °C 3.0 °C 1019.7 hPa SW 9.7 km/h 11.3 km/h 59% 0.0 mm CLR
08:15 10.8 °C 3.1 °C 1019.7 hPa SW 9.7 km/h 9.7 km/h 59% 0.0 mm CLR
08:20 11.1 °C 3.2 °C 1019.7 hPa SSW 6.4 km/h 9.3 km/h 58% 0.0 mm CLR
08:25 11.2 °C 3.2 °C 1019.7 hPa SW 8.0 km/h 9.7 km/h 58% 0.0 mm CLR
08:30 11.3 °C 3.1 °C 1019.7 hPa SW 8.0 km/h 9.7 km/h 57% 0.0 mm CLR
08:35 11.5 °C 3.0 °C 1019.8 hPa SSW 6.4 km/h 9.3 km/h 56% 0.0 mm CLR
08:40 11.6 °C 3.1 °C 1019.8 hPa SW 6.9 km/h 8.7 km/h 56% 0.0 mm CLR
08:45 11.7 °C 2.9 °C 1019.8 hPa SW 8.0 km/h 14.5 km/h 55% 0.0 mm CLR
08:50 11.8 °C 3.1 °C 1019.8 hPa SW 8.0 km/h 11.3 km/h 55% 0.0 mm CLR
08:55 11.9 °C 2.9 °C 1019.8 hPa West 6.9 km/h 11.1 km/h 54% 0.0 mm CLR
09:00 11.9 °C 2.9 °C 1019.8 hPa WSW 8.0 km/h 12.9 km/h 54% 0.0 mm CLR
09:05 12.1 °C 3.1 °C 1019.9 hPa WSW 7.6 km/h 9.3 km/h 54% 0.0 mm CLR
09:10 12.3 °C 3.2 °C 1019.9 hPa West 7.6 km/h 11.1 km/h 54% 0.0 mm CLR
09:15 12.4 °C 3.3 °C 1019.9 hPa WSW 7.6 km/h 9.3 km/h 54% 0.0 mm CLR
09:20 12.7 °C 3.3 °C 1020.0 hPa WSW 8.0 km/h 11.3 km/h 53% 0.0 mm CLR
09:25 12.9 °C 3.3 °C 1020.0 hPa SW 6.9 km/h 13.0 km/h 52% 0.0 mm CLR
09:30 13.1 °C 3.4 °C 1020.0 hPa WSW 8.0 km/h 11.3 km/h 52% 0.0 mm CLR
09:35 13.3 °C 3.7 °C 1020.2 hPa SW 7.6 km/h 11.1 km/h 52% 0.0 mm CLR
09:40 13.5 °C 3.6 °C 1020.2 hPa SW 8.0 km/h 12.9 km/h 51% 0.0 mm CLR
09:45 13.7 °C 3.7 °C 1020.2 hPa SSE 7.6 km/h 11.1 km/h 51% 0.0 mm CLR
09:50 14.0 °C 3.7 °C 1020.2 hPa SW 6.9 km/h 11.1 km/h 50% 0.0 mm CLR
09:55 14.1 °C 3.6 °C 1020.2 hPa SSW 8.0 km/h 12.9 km/h 49% 0.0 mm CLR
10:00 14.3 °C 3.7 °C 1020.2 hPa SW 8.0 km/h 12.9 km/h 49% 0.0 mm CLR
10:05 14.4 °C 3.3 °C 1020.1 hPa WSW 8.0 km/h 12.9 km/h 47% 0.0 mm CLR
10:10 14.7 °C 3.5 °C 1020.1 hPa NNW 5.8 km/h 5.6 km/h 47% 0.0 mm CLR
10:15 14.9 °C 3.4 °C 1020.1 hPa West 4.8 km/h 9.7 km/h 46% 0.0 mm CLR
10:20 15.1 °C 2.9 °C 1020.1 hPa West 4.7 km/h 9.3 km/h 44% 0.0 mm CLR
10:25 15.2 °C 3.0 °C 1020.1 hPa WNW 4.7 km/h 5.6 km/h 44% 0.0 mm CLR
10:30 15.6 °C 3.4 °C 1020.1 hPa SW 5.0 km/h 11.1 km/h 44% 0.0 mm CLR
10:35 15.7 °C 3.2 °C 1020.1 hPa WSW 4.8 km/h 9.7 km/h 43% 0.0 mm CLR
10:39 15.9 °C 3.3 °C 1020.1 hPa NW 5.8 km/h 3.7 km/h 43% 0.0 mm CLR
10:45 16.2 °C 3.3 °C 1020.1 hPa West 5.8 km/h 9.3 km/h 42% 0.0 mm CLR
10:50 16.4 °C 3.1 °C 1020.0 hPa West 3.9 km/h 9.3 km/h 41% 0.0 mm CLR
10:55 16.6 °C 3.3 °C 1020.0 hPa West 3.2 km/h 8.0 km/h 41% 0.0 mm CLR
11:00 16.9 °C 3.2 °C 1020.0 hPa SSW 3.2 km/h 9.7 km/h 40% 0.0 mm CLR
11:05 17.3 °C 3.2 °C 1019.8 hPa WNW 4.7 km/h 9.3 km/h 39% 0.0 mm CLR
11:10 17.4 °C 3.3 °C 1019.8 hPa WNW 3.2 km/h 8.0 km/h 39% 0.0 mm CLR
11:15 17.9 °C 3.4 °C 1019.8 hPa NNE 3.9 km/h 5.6 km/h 38% 0.0 mm CLR
11:20 18.3 °C 3.3 °C 1019.7 hPa NW 2.9 km/h 7.4 km/h 37% 0.0 mm CLR
11:25 18.3 °C 3.4 °C 1019.7 hPa NNW 3.2 km/h 8.0 km/h 37% 0.0 mm CLR
11:30 18.7 °C 3.3 °C 1019.7 hPa NNW 3.2 km/h 9.7 km/h 36% 0.0 mm CLR
11:35 18.8 °C 3.4 °C 1019.5 hPa ESE 3.2 km/h 9.7 km/h 36% 0.0 mm CLR
11:40 18.8 °C 3.4 °C 1019.5 hPa SSE 4.8 km/h 8.0 km/h 36% 0.0 mm CLR
11:45 19.0 °C 3.6 °C 1019.5 hPa NE 5.0 km/h 7.4 km/h 36% 0.0 mm CLR
11:49 19.1 °C 3.7 °C 1019.2 hPa East 4.7 km/h 7.4 km/h 36% 0.0 mm CLR
11:55 19.3 °C 3.4 °C 1019.2 hPa East 3.2 km/h 14.5 km/h 35% 0.0 mm CLR
12:00 19.2 °C 3.8 °C 1019.2 hPa ENE 8.0 km/h 14.5 km/h 36% 0.0 mm CLR
12:05 19.2 °C 4.2 °C 1019.0 hPa North 6.4 km/h 13.0 km/h 37% 0.0 mm CLR
12:10 19.2 °C 4.2 °C 1019.0 hPa NNE 8.0 km/h 17.7 km/h 37% 0.0 mm CLR
12:15 19.2 °C 4.2 °C 1019.0 hPa NE 7.6 km/h 3.7 km/h 37% 0.0 mm CLR
12:20 19.4 °C 4.4 °C 1018.7 hPa NNE 8.0 km/h 11.3 km/h 37% 0.0 mm CLR
12:25 19.7 °C 4.6 °C 1018.7 hPa NW 6.4 km/h 14.8 km/h 37% 0.0 mm CLR
12:30 19.7 °C 5.0 °C 1018.7 hPa North 8.0 km/h 16.1 km/h 38% 0.0 mm CLR
12:35 19.8 °C 4.7 °C 1018.5 hPa NNE 8.0 km/h 19.3 km/h 37% 0.0 mm CLR
12:40 19.8 °C 4.7 °C 1018.5 hPa NE 9.5 km/h 9.3 km/h 37% 0.0 mm CLR
12:45 19.7 °C 4.6 °C 1018.5 hPa ENE 9.7 km/h 14.5 km/h 37% 0.0 mm CLR
12:50 20.1 °C 4.9 °C 1018.2 hPa NE 8.4 km/h 9.3 km/h 37% 0.0 mm CLR
12:55 20.2 °C 5.1 °C 1018.2 hPa ENE 8.0 km/h 14.5 km/h 37% 0.0 mm CLR
13:00 20.3 °C 4.7 °C 1018.2 hPa NE 8.0 km/h 11.3 km/h 36% 0.0 mm CLR
13:05 20.7 °C 5.1 °C 1018.1 hPa ENE 6.4 km/h 13.0 km/h 36% 0.0 mm CLR
13:10 20.7 °C 5.1 °C 1018.1 hPa North 8.0 km/h 14.5 km/h 36% 0.0 mm CLR
13:15 20.9 °C 4.8 °C 1018.1 hPa NNE 8.0 km/h 11.3 km/h 35% 0.0 mm CLR
13:20 21.1 °C 4.6 °C 1017.8 hPa ENE 4.8 km/h 12.9 km/h 34% 0.0 mm CLR
13:25 21.2 °C 4.7 °C 1017.8 hPa NE 5.8 km/h 11.9 km/h 34% 0.0 mm CLR
13:30 21.1 °C 4.2 °C 1017.8 hPa NNE 9.7 km/h 20.9 km/h 33% 0.0 mm CLR
13:35 20.9 °C 4.4 °C 1017.6 hPa ENE 9.7 km/h 14.5 km/h 34% 0.0 mm CLR
13:40 21.1 °C 4.6 °C 1017.6 hPa NE 8.4 km/h 19.0 km/h 34% 0.0 mm CLR
13:45 21.1 °C 4.6 °C 1017.6 hPa NE 8.4 km/h 16.7 km/h 34% 0.0 mm CLR
13:50 21.3 °C 5.2 °C 1017.3 hPa NE 11.3 km/h 19.3 km/h 35% 0.0 mm CLR
13:54 21.2 °C 4.7 °C 1017.3 hPa NNE 10.3 km/h 13.0 km/h 34% 0.0 mm CLR
13:58 21.3 °C 4.8 °C 1017.3 hPa NE 11.9 km/h 18.5 km/h 34% 0.0 mm CLR
14:03 21.5 °C 4.6 °C 1017.1 hPa North 11.9 km/h 14.8 km/h 33% 0.0 mm CLR
14:08 21.4 °C 4.4 °C 1017.1 hPa NE 8.7 km/h 14.8 km/h 33% 0.0 mm CLR
14:13 21.2 °C 4.3 °C 1017.1 hPa WNW 8.7 km/h 11.1 km/h 33% 0.0 mm CLR
14:17 21.5 °C 4.1 °C 1017.1 hPa ESE 8.7 km/h 16.7 km/h 32% 0.0 mm CLR
14:22 21.7 °C 4.7 °C 1016.8 hPa ENE 8.4 km/h 20.4 km/h 33% 0.0 mm CLR
14:26 21.8 °C 4.4 °C 1016.8 hPa ENE 8.4 km/h 11.1 km/h 32% 0.0 mm CLR
14:31 21.9 °C 4.9 °C 1016.8 hPa NNE 10.0 km/h 22.2 km/h 33% 0.0 mm CLR
14:36 21.8 °C 4.4 °C 1016.6 hPa North 10.0 km/h 14.8 km/h 32% 0.0 mm CLR
14:42 21.8 °C 4.4 °C 1016.6 hPa NNW 10.3 km/h 18.5 km/h 32% 0.0 mm CLR
14:46 21.9 °C 4.0 °C 1016.6 hPa NE 10.3 km/h 14.8 km/h 31% 0.0 mm CLR
14:51 22.1 °C 4.2 °C 1016.3 hPa NNE 10.3 km/h 16.7 km/h 31% 0.0 mm CLR
14:56 22.1 °C 4.2 °C 1016.3 hPa NNE 10.3 km/h 16.7 km/h 31% 0.0 mm CLR
15:00 22.0 °C 4.1 °C 1016.3 hPa NE 11.3 km/h 16.1 km/h 31% 0.0 mm CLR
15:05 22.2 °C 3.8 °C 1016.0 hPa East 11.9 km/h 14.8 km/h 30% 0.0 mm CLR
15:10 22.2 °C 3.8 °C 1016.0 hPa ENE 9.5 km/h 11.1 km/h 30% 0.0 mm CLR
15:15 22.2 °C 3.8 °C 1016.0 hPa NNW 9.5 km/h 16.7 km/h 30% 0.0 mm CLR
15:20 22.2 °C 3.8 °C 1015.8 hPa NE 9.5 km/h 20.4 km/h 30% 0.0 mm CLR
15:25 22.0 °C 3.6 °C 1015.8 hPa NE 9.5 km/h 18.5 km/h 30% 0.0 mm CLR
15:29 22.1 °C 3.7 °C 1015.8 hPa East 11.1 km/h 18.5 km/h 30% 0.0 mm CLR
15:34 22.2 °C 3.3 °C 1015.6 hPa NNE 11.1 km/h 13.0 km/h 29% 0.0 mm CLR
15:39 22.2 °C 3.3 °C 1015.6 hPa ENE 10.3 km/h 14.8 km/h 29% 0.0 mm CLR
15:45 22.1 °C 3.2 °C 1015.6 hPa ESE 10.3 km/h 14.8 km/h 29% 0.0 mm CLR
15:49 22.1 °C 3.2 °C 1015.5 hPa NNE 11.1 km/h 20.4 km/h 29% 0.0 mm CLR
15:54 22.1 °C 3.2 °C 1015.5 hPa ENE 11.1 km/h 13.0 km/h 29% 0.0 mm CLR
15:59 22.2 °C 3.3 °C 1015.5 hPa ENE 11.1 km/h 14.8 km/h 29% 0.0 mm CLR
16:03 22.2 °C 2.8 °C 1015.3 hPa NE 11.1 km/h 20.4 km/h 28% 0.0 mm CLR
16:08 21.9 °C 3.1 °C 1015.3 hPa NE 12.2 km/h 16.7 km/h 29% 0.0 mm CLR
16:14 21.8 °C 2.9 °C 1015.3 hPa East 12.2 km/h 14.8 km/h 29% 0.0 mm CLR
16:18 21.9 °C 2.6 °C 1015.2 hPa ENE 10.3 km/h 18.5 km/h 28% 0.0 mm CLR
16:23 22.0 °C 2.7 °C 1015.2 hPa NE 10.3 km/h 20.4 km/h 28% 0.0 mm CLR
16:28 21.9 °C 2.6 °C 1015.2 hPa ENE 12.2 km/h 20.1 km/h 28% 0.0 mm CLR
16:32 21.8 °C 2.4 °C 1015.2 hPa NE 12.2 km/h 22.5 km/h 28% 0.0 mm CLR
16:37 21.7 °C 2.9 °C 1015.1 hPa NNE 12.2 km/h 17.2 km/h 29% 0.0 mm CLR
16:41 21.7 °C 2.9 °C 1015.1 hPa NE 14.0 km/h 22.2 km/h 29% 0.0 mm CLR
16:46 21.6 °C 2.8 °C 1015.1 hPa NE 14.0 km/h 16.7 km/h 29% 0.0 mm CLR
16:51 21.6 °C 2.3 °C 1015.1 hPa East 13.7 km/h 24.1 km/h 28% 0.0 mm CLR
16:55 21.5 °C 2.2 °C 1015.1 hPa NE 13.7 km/h 24.1 km/h 28% 0.0 mm CLR
17:00 21.4 °C 2.1 °C 1015.1 hPa NE 14.5 km/h 25.7 km/h 28% 0.0 mm CLR
17:05 21.4 °C 2.1 °C 1015.0 hPa NE 14.5 km/h 25.7 km/h 28% 0.0 mm CLR
17:09 21.2 °C 2.4 °C 1015.0 hPa NE 16.1 km/h 23.7 km/h 29% 0.0 mm CLR
17:14 21.1 °C 2.8 °C 1015.0 hPa NE 16.1 km/h 20.4 km/h 30% 0.0 mm CLR
17:20 21.1 °C 2.8 °C 1014.9 hPa NE 17.2 km/h 25.9 km/h 30% 0.0 mm CLR
17:24 20.9 °C 1.2 °C 1014.9 hPa NNE 17.2 km/h 20.4 km/h 27% 0.0 mm CLR
17:29 20.9 °C 0.7 °C 1014.9 hPa NNE 14.0 km/h 27.8 km/h 26% 0.0 mm CLR
17:33 20.8 °C 1.1 °C 1015.1 hPa NNW 14.0 km/h 22.2 km/h 27% 0.0 mm CLR
17:38 20.8 °C 1.1 °C 1015.1 hPa East 13.0 km/h 14.8 km/h 27% 0.0 mm CLR
17:43 20.7 °C 1.0 °C 1015.1 hPa NW 13.0 km/h 16.7 km/h 27% 0.0 mm CLR
17:47 20.5 °C 1.8 °C 1015.1 hPa NNE 13.0 km/h 22.2 km/h 29% 0.0 mm CLR
17:52 20.4 °C 1.8 °C 1015.0 hPa NNE 12.2 km/h 20.4 km/h 29% 0.0 mm CLR
17:56 20.3 °C 2.2 °C 1015.0 hPa NNE 12.2 km/h 24.1 km/h 30% 0.0 mm CLR
18:01 20.1 °C 1.9 °C 1015.0 hPa North 13.0 km/h 25.9 km/h 30% 0.0 mm CLR
18:06 20.0 °C 1.9 °C 1015.2 hPa NE 13.0 km/h 22.0 km/h 30% 0.0 mm CLR
18:11 19.9 °C 1.3 °C 1015.2 hPa NNE 12.2 km/h 22.2 km/h 29% 0.0 mm CLR
18:15 19.9 °C 1.3 °C 1015.2 hPa NE 12.2 km/h 18.5 km/h 29% 0.0 mm CLR
18:20 19.8 °C 2.2 °C 1015.2 hPa ENE 12.2 km/h 25.1 km/h 31% 0.0 mm CLR
18:25 19.6 °C 2.4 °C 1015.2 hPa ENE 12.2 km/h 16.7 km/h 32% 0.0 mm CLR
18:30 19.6 °C 2.4 °C 1015.2 hPa NE 14.8 km/h 14.8 km/h 32% 0.0 mm CLR
18:35 19.6 °C 2.4 °C 1015.5 hPa NE 14.5 km/h 20.9 km/h 32% 0.0 mm CLR
18:39 19.4 °C 2.3 °C 1015.5 hPa NE 11.9 km/h 16.7 km/h 32% 0.0 mm CLR
18:44 19.4 °C 2.3 °C 1015.5 hPa ENE 11.9 km/h 18.5 km/h 32% 0.0 mm CLR
18:48 19.2 °C 2.5 °C 1015.4 hPa NE 12.2 km/h 14.8 km/h 33% 0.0 mm CLR
18:53 19.1 °C 2.4 °C 1015.4 hPa ENE 12.2 km/h 19.0 km/h 33% 0.0 mm CLR
18:58 18.9 °C 2.3 °C 1015.4 hPa NE 12.2 km/h 18.5 km/h 33% 0.0 mm CLR
19:02 18.8 °C 2.6 °C 1015.4 hPa NE 12.2 km/h 16.7 km/h 34% 0.0 mm CLR
19:07 18.7 °C 2.5 °C 1015.6 hPa NE 12.2 km/h 16.7 km/h 34% 0.0 mm CLR
19:12 18.4 °C 2.7 °C 1015.6 hPa NE 11.1 km/h 16.7 km/h 35% 0.0 mm CLR
19:16 18.3 °C 2.6 °C 1015.6 hPa ENE 11.1 km/h 14.8 km/h 35% 0.0 mm CLR
19:21 18.2 °C 2.9 °C 1015.7 hPa NE 11.1 km/h 16.7 km/h 36% 0.0 mm CLR
19:25 18.1 °C 2.8 °C 1015.7 hPa NE 11.1 km/h 11.1 km/h 36% 0.0 mm CLR
19:30 17.9 °C 3.4 °C 1015.7 hPa NNE 10.3 km/h 13.0 km/h 38% 0.0 mm CLR
19:35 17.7 °C 3.2 °C 1015.9 hPa NE 11.3 km/h 14.5 km/h 38% 0.0 mm CLR
19:39 17.4 °C 3.3 °C 1015.9 hPa NNE 9.5 km/h 13.0 km/h 39% 0.0 mm CLR
19:44 17.2 °C 3.4 °C 1015.9 hPa NE 9.5 km/h 14.8 km/h 40% 0.0 mm CLR
19:49 17.0 °C 3.3 °C 1015.8 hPa NNE 10.3 km/h 16.7 km/h 40% 0.0 mm CLR
19:53 16.8 °C 3.4 °C 1015.8 hPa NNE 10.3 km/h 14.8 km/h 41% 0.0 mm CLR
19:58 16.7 °C 3.7 °C 1015.8 hPa NE 11.1 km/h 18.5 km/h 42% 0.0 mm CLR
20:02 16.6 °C 3.9 °C 1015.8 hPa NE 11.1 km/h 14.8 km/h 43% 0.0 mm CLR
20:07 16.4 °C 4.1 °C 1015.8 hPa NNE 11.1 km/h 13.0 km/h 44% 0.0 mm CLR
20:11 16.3 °C 4.7 °C 1015.8 hPa NNE 10.0 km/h 18.5 km/h 46% 0.0 mm CLR
20:16 16.1 °C 4.4 °C 1015.8 hPa NE 10.0 km/h 13.0 km/h 46% 0.0 mm CLR
20:22 15.9 °C 4.9 °C 1015.9 hPa NE 10.0 km/h 14.8 km/h 48% 0.0 mm CLR
20:26 15.9 °C 5.2 °C 1015.9 hPa NNE 10.0 km/h 16.7 km/h 49% 0.0 mm CLR
20:31 15.8 °C 5.4 °C 1015.9 hPa ENE 10.3 km/h 16.7 km/h 50% 0.0 mm CLR
20:36 15.8 °C 5.7 °C 1016.1 hPa NE 10.3 km/h 14.8 km/h 51% 0.0 mm CLR
20:40 15.7 °C 5.9 °C 1016.1 hPa NE 10.3 km/h 14.8 km/h 52% 0.0 mm CLR
20:45 15.6 °C 5.8 °C 1016.1 hPa NE 10.3 km/h 15.6 km/h 52% 0.0 mm CLR
20:50 15.4 °C 6.1 °C 1016.1 hPa ENE 11.1 km/h 20.4 km/h 54% 0.0 mm CLR
20:54 15.4 °C 6.4 °C 1016.1 hPa ENE 11.1 km/h 20.4 km/h 55% 0.0 mm CLR
20:59 15.4 °C 6.4 °C 1016.1 hPa NE 12.2 km/h 16.7 km/h 55% 0.0 mm CLR
21:03 15.4 °C 6.4 °C 1016.1 hPa NE 12.2 km/h 11.1 km/h 55% 0.0 mm CLR
21:08 15.3 °C 6.3 °C 1016.1 hPa NE 8.4 km/h 7.4 km/h 55% 0.0 mm CLR
21:16 15.3 °C 6.3 °C 1016.1 hPa ENE 8.4 km/h 5.6 km/h 55% 0.0 mm CLR
21:24 15.2 °C 6.2 °C 1016.3 hPa NE 4.7 km/h 7.4 km/h 55% 0.0 mm CLR
21:32 15.1 °C 6.1 °C 1016.3 hPa NE 4.7 km/h 7.4 km/h 55% 0.0 mm CLR
21:40 14.9 °C 6.2 °C 1016.2 hPa NNE 4.7 km/h 8.7 km/h 56% 0.0 mm CLR
21:49 14.6 °C 6.2 °C 1016.4 hPa NNE 5.0 km/h 7.4 km/h 57% 0.0 mm CLR
21:58 14.3 °C 6.4 °C 1016.4 hPa NNE 3.9 km/h 7.4 km/h 59% 0.0 mm CLR
22:06 14.1 °C 6.4 °C 1016.4 hPa NNE 3.9 km/h 7.4 km/h 60% 0.0 mm CLR
22:15 13.9 °C 6.5 °C 1016.4 hPa NNE 5.0 km/h 3.9 km/h 61% 0.0 mm CLR
22:23 13.8 °C 6.7 °C 1016.6 hPa NNE 2.9 km/h 7.4 km/h 62% 0.0 mm CLR
22:29 13.6 °C 6.7 °C 1016.6 hPa NNW 3.9 km/h 7.4 km/h 63% 0.0 mm CLR
22:34 13.6 °C 6.7 °C 1016.7 hPa NNE 3.9 km/h 7.4 km/h 63% 0.0 mm CLR
22:39 13.5 °C 6.8 °C 1016.7 hPa NNE 3.2 km/h 3.9 km/h 64% 0.0 mm CLR
22:44 13.4 °C 6.7 °C 1016.7 hPa NNE 3.2 km/h 5.6 km/h 64% 0.0 mm CLR
22:50 13.4 °C 6.9 °C 1016.8 hPa NNE 3.2 km/h 3.7 km/h 65% 0.0 mm CLR
22:55 13.4 °C 6.9 °C 1016.8 hPa NNE 3.2 km/h 8.0 km/h 65% 0.0 mm CLR
23:00 13.3 °C 6.9 °C 1016.8 hPa NE 3.2 km/h 8.0 km/h 65% 0.0 mm CLR
23:05 13.3 °C 6.8 °C 1016.7 hPa NE 3.2 km/h 8.0 km/h 65% 0.0 mm CLR
23:10 13.2 °C 6.8 °C 1016.7 hPa NE 5.0 km/h 7.4 km/h 65% 0.0 mm CLR
23:15 13.1 °C 6.7 °C 1016.7 hPa NE 5.0 km/h 7.4 km/h 65% 0.0 mm CLR
23:20 12.9 °C 6.7 °C 1016.7 hPa NE 3.2 km/h   66% 0.0 mm CLR
23:25 12.8 °C 6.6 °C 1016.7 hPa NE 3.2 km/h 3.7 km/h 66% 0.0 mm CLR
23:30 12.7 °C 6.5 °C 1016.7 hPa Calm   3.7 km/h 66% 0.0 mm CLR
23:35 12.6 °C 6.4 °C 1016.8 hPa Calm     66% 0.0 mm CLR
23:40 12.6 °C 6.4 °C 1016.8 hPa Calm     66% 0.0 mm CLR
23:45 12.5 °C 4.7 °C 1016.8 hPa Calm     59% 0.0 mm CLR
23:50 12.5 °C 6.1 °C 1016.9 hPa Calm     65% 0.0 mm CLR
23:55 12.4 °C 6.2 °C 1016.9 hPa Calm     66% 0.0 mm CLR
Murcia-Puente Tocinos, España
Compliments of Weather Underground - 2.75 mb

La estación de MeteoMurcia.com, publica sus datos en los siguientes proyectos:

Weather Underground PWS IMURCIAP2 Meteoclimatic www.awekas.at

W3Counter
Web Analytics